Location: Kielce
(50.8833°N, 20.6167°E)
Time: 04:33:10
(UTC+02:00)

Transit 2A Rocket - All Passes

Search period start: 21 April 2021 00:00
Search period end: 01 May 2021 00:00
Orbit: 594 x 908 km, 66.7° (Epoch: 20 April)

Date Brightness Start Highest point End Pass type
(mag) Time Alt. Az. Time Alt. Az. Time Alt. Az.
21 Apr - 00:52:39 10° NW 00:56:45 35° WSW 01:01:05 10° S visible
21 Apr - 15:31:56 10° SSW 15:36:14 48° ESE 15:40:25 10° NE daylight
21 Apr - 17:15:02 10° WSW 17:18:56 30° NW 17:22:47 10° NNE daylight
21 Apr - 19:01:15 10° NW 19:02:52 12° NNW 19:04:30 10° N daylight
21 Apr - 20:45:55 10° N 20:47:26 11° NNE 20:48:57 10° NNE visible
21 Apr - 22:27:36 10° NNW 22:31:26 28° NE 22:35:24 10° E visible
22 Apr - 00:09:51 10° NW 00:14:15 59° WSW 00:18:56 10° SSE visible
22 Apr - 14:49:57 10° S 14:53:47 28° ESE 14:57:31 10° NE daylight
22 Apr - 16:31:54 10° WSW 16:36:08 45° NW 16:40:19 10° NNE daylight
22 Apr - 18:17:23 10° NW 18:19:46 14° NNW 18:22:07 10° NNE daylight
22 Apr - 20:03:30 10° N 20:04:15 10° N 20:05:01 10° NNE daylight
22 Apr - 21:45:11 10° NNW 21:48:31 20° NNE 21:51:57 10° E visible
22 Apr - 23:27:11 10° NW 23:31:39 85° NE 23:36:25 10° SE visible
23 Apr - 01:10:55 10° WNW 01:13:39 16° WSW 01:16:30 10° SSW visible
23 Apr - 14:08:32 10° SSE 14:11:25 17° ESE 14:14:15 10° ENE daylight
23 Apr - 15:49:01 10° SW 15:53:27 73° NW 15:57:46 10° NE daylight
23 Apr - 17:33:41 10° WNW 17:36:42 18° NNW 17:39:44 10° NNE daylight
23 Apr - 19:20:34 10° N 19:21:04 10° N 19:21:33 10° N daylight
23 Apr - 21:02:47 10° NNW 21:05:31 16° NNE 21:08:18 10° ENE visible
23 Apr - 22:44:38 10° NNW 22:48:59 53° NE 22:53:37 10° SE visible
24 Apr - 00:27:32 10° WNW 00:31:18 26° WSW 00:35:15 10° S visible
24 Apr - 15:06:25 10° SSW 15:10:50 69° SE 15:15:08 10° NE daylight
24 Apr - 16:50:10 10° W 16:53:45 24° NW 16:57:19 10° NNE daylight
24 Apr - 18:36:44 10° NNW 18:37:53 11° N 18:39:02 10° N daylight
24 Apr - 20:20:24 10° N 20:22:26 13° NNE 20:24:28 10° NE visible
24 Apr - 22:02:08 10° NNW 22:06:14 35° NE 22:10:32 10° ESE visible
24 Apr - 23:44:35 10° NW 23:48:51 43° WSW 23:53:23 10° S visible
25 Apr - 14:24:10 10° S 14:28:20 40° ESE 14:32:22 10° NE daylight
25 Apr - 16:06:52 10° WSW 16:10:54 34° NW 16:14:52 10° NNE daylight
25 Apr - 17:52:49 10° NW 17:54:44 13° NNW 17:56:38 10° N daylight
25 Apr - 19:38:00 10° N 19:39:16 11° N 19:40:34 10° NNE daylight
25 Apr - 21:19:41 10° NNW 21:23:22 25° NE 21:27:13 10° E visible
25 Apr - 23:01:51 10° NW 23:06:18 71° SW 23:11:05 10° SSE visible
26 Apr - 00:46:47 10° W 00:48:07 11° WSW 00:49:27 10° WSW visible
26 Apr - 13:42:22 10° SSE 13:45:54 24° ESE 13:49:21 10° ENE daylight
26 Apr - 15:23:49 10° SW 15:28:08 53° NW 15:32:22 10° NNE daylight
26 Apr - 17:09:01 10° WNW 17:11:38 15° NNW 17:14:15 10° NNE daylight
26 Apr - 18:55:28 10° N 18:56:05 10° N 18:56:43 10° N daylight
26 Apr - 20:37:17 10° NNW 20:40:25 19° NNE 20:43:40 10° ENE visible
26 Apr - 22:19:13 10° NW 22:23:41 72° NE 22:28:27 10° SE visible
27 Apr - 00:02:35 10° WNW 00:05:48 19° WSW 00:09:11 10° SSW visible
27 Apr - 13:01:17 10° SE 13:03:34 14° ESE 13:05:49 10° ENE daylight
27 Apr - 14:41:02 10° SW 14:45:28 86° NW 14:49:48 10° NE daylight
27 Apr - 16:25:23 10° WNW 16:28:37 20° NNW 16:31:51 10° NNE daylight
27 Apr - 18:12:10 10° NNW 18:12:54 10° N 18:13:38 10° N daylight
27 Apr - 19:54:53 10° NNW 19:57:24 15° NNE 19:59:58 10° ENE daylight
27 Apr - 21:36:41 10° NNW 21:40:59 46° NE 21:45:33 10° ESE visible
27 Apr - 23:19:24 10° NW 23:23:24 31° WSW 23:27:39 10° S visible
28 Apr - 13:58:34 10° SSW 14:02:53 56° ESE 14:07:08 10° NE daylight
28 Apr - 15:41:57 10° W 15:45:41 27° NW 15:49:25 10° NNE daylight
28 Apr - 17:28:17 10° NNW 17:29:43 11° NNW 17:31:10 10° N daylight
28 Apr - 19:12:29 10° N 19:14:16 12° NNE 19:16:06 10° NE daylight
28 Apr - 20:54:13 10° NNW 20:58:12 31° NE 21:02:23 10° ESE visible
28 Apr - 22:36:33 10° NW 22:40:55 52° WSW 22:45:37 10° SSE visible
29 Apr - 13:16:27 10° S 13:20:25 33° ESE 13:24:17 10° NE daylight
29 Apr - 14:58:44 10° WSW 15:02:52 40° NW 15:06:57 10° NNE daylight
29 Apr - 16:44:25 10° NW 16:46:35 13° NNW 16:48:45 10° NNE daylight
29 Apr - 18:30:03 10° N 18:31:06 11° N 18:32:11 10° NNE daylight
29 Apr - 20:11:46 10° NNW 20:15:18 23° NNE 20:18:59 10° E daylight
29 Apr - 21:53:51 10° NW 21:58:21 85° SW 22:03:12 10° SSE visible
29 Apr - 23:37:56 10° WNW 23:40:17 14° WSW 23:42:41 10° SW visible
30 Apr - 12:34:50 10° SSE 12:38:01 20° ESE 12:41:09 10° ENE daylight
30 Apr - 14:15:47 10° SW 14:20:08 63° NW 14:24:26 10° NNE daylight
30 Apr - 16:00:40 10° WNW 16:03:31 17° NNW 16:06:22 10° NNE daylight
30 Apr - 17:47:19 10° N 17:47:55 10° N 17:48:32 10° N daylight
30 Apr - 19:29:22 10° NNW 19:32:19 17° NNE 19:35:22 10° ENE daylight
30 Apr - 21:11:15 10° NNW 21:15:42 61° NE 21:20:28 10° SE visible
30 Apr - 22:54:20 10° WNW 22:57:56 23° WSW 23:01:44 10° SSW visible
